Regional Weather Roundup
Issued by NWS

Home | Current Version | Previous Version | Graphics & Text | Print | Product List | Glossary On
Versions: 1 2 3 4 5 6 7 8 9 10 11 12 13 14 15 16 17 18 19 20 21 22 23 24 25 26 27 28 29 30 31 32 33 34 35 36 37 38 39 40 41 42 43 44 45 46 47 48 49 50
000
ASUS43 KDTX 280301
RWRMI
MICHIGAN HOURLY REGIONAL WEATHER ROUNDUP
NATIONAL WEATHER SERVICE DETROIT/PONTIAC MI
1100 PM EDT MON JUL 27 2015

NOTE: "FAIR" INDICATES FEW OR NO CLOUDS BELOW 12,000 FEET WITH NO
SIGNIFICANT WEATHER AND/OR OBSTRUCTION TO VISIBILITY.

MIZ047>049-052>055-059>063-066>070-074>076-081>083-280400-
SOUTHEAST LOWER MICHIGAN

CITY           SKY/WX    TMP DP  RH WIND       PRES   REMARKS
ADRIAN         PTCLDY    68  64  87 NE3       30.05R
ALMA           PTCLDY    69  67  93 CALM      30.04R
ANN ARBOR      PTCLDY    67  65  93 CALM      30.04R
BAD AXE        CLEAR     68  65  90 CALM      30.04R
CARO           CLEAR     69  67  95 CALM      30.03R
DETROIT CITY   CLEAR     79  63  57 CALM      30.03R
DETROIT        MOCLDY    77  64  64 CALM      30.04R
FLINT          CLEAR     70  64  81 SE6       30.03S
GROSSE ILE     PTCLDY    75  70  83 CALM      30.02S
HILLSDALE      CLEAR     68  66  96 CALM      30.06R
HOWELL         PTCLDY    71  65  82 CALM      30.05R

CITY           SKY/WX    TMP DP  RH WIND       PRES   REMARKS
JACKSON        PTCLDY    71  65  81 CALM      30.05R
LAMBERTVILLE   MOCLDY    71  66  84 CALM      30.04R
LANSING        CLEAR     72  64  76 CALM      30.05R
LAPEER         FAIR      65  64  94 CALM      30.05R
MASON          CLEAR     68  65  91 CALM      30.05R
MONROE         PTCLDY    68  64  85 CALM      30.03R
MT. CLEMENS    CLEAR     75  64  68 E2        30.02R
PONTIAC        CLEAR     76  60  57 CALM      30.05R
PORT HOPE        N/A     72  67  84 CALM      30.02R
PORT HURON     CLEAR     63  61  94 CALM      30.04R
TRI CITIES     CLEAR     79  62  56 SW5       30.03R
MIDLAND        FAIR      70  64  82 CALM      30.02S
TROY           CLEAR     79  61  54 CALM      30.06R
SAGINAW HB     CLEAR     72  64  78 CALM      30.02S
$$
MIZ043>046-050>051-056>058-064>065-071>073-077>080-280400-
SOUTHWEST LOWER MICHIGAN

CITY           SKY/WX    TMP DP  RH WIND       PRES   REMARKS
BATTLE CREEK   CLEAR     73  64  73 CALM      30.05R
BENTON HARBOR  PTCLDY    69  66  90 CALM      30.03R
BIG RAPIDS     CLEAR     72  62  71 CALM      30.05R
COLDWATER      CLEAR     68  63  84 CALM      30.05R
FREMONT        FAIR      71  64  79 N3        30.04R
HOLLAND        CLEAR     71  66  84 CALM      30.04R
GRAND RAPIDS   CLEAR     77  68  73 CALM      30.04R
IONIA          FAIR      69  64  84 CALM      30.04R
KALAMAZOO      CLEAR     72  64  76 CALM      30.05R
LUDINGTON      CLEAR     66  62  85 CALM      30.04S
MARSHALL       CLEAR     69  66  91 CALM      30.05R
MOUNT PLEASANT CLEAR     71  63  77 CALM      30.03R
MUSKEGON       PTCLDY    75  65  70 NE5       30.04R
SOUTH HAVEN    PTCLDY    70  67  90 CALM      30.03R
$$
MIZ016>042-280400-
NORTHERN LOWER MICHIGAN

CITY           SKY/WX    TMP DP  RH WIND       PRES   REMARKS
ALPENA         CLEAR     68  62  81 CALM      30.04R
BEAVER ISLAND  CLEAR     68  60  76 W3        30.03S
BELLAIRE       CLEAR     65  61  86 CALM      30.04R
CADILLAC       CLEAR     69  62  79 CALM      30.06S
CHARLEVOIX     CLEAR     67  61  80 CALM      30.06S
FRANKFORT      CLEAR     66  55  68 CALM      30.04S
GAYLORD        CLEAR     73  62  68 CALM      30.07R
GRAYLING       CLEAR     66  61  82 CALM      30.06S
HARBOR SPRINGS CLEAR     68  66  94 CALM      30.03S
HOUGHTON LAKE  CLEAR     70  63  78 NW3       30.05R
MANISTEE       CLEAR     64  57  77 CALM      30.04S
OSCODA         CLEAR     69  65  88 CALM      30.03R
PELLSTON       CLEAR     71  62  73 N5        30.04R
ROGERS CITY    CLEAR     69  62  77 SW5       30.04R
TRAVERSE CITY  CLEAR     71  65  81 CALM      30.02S
$$
MIZ007>008-015-280400-
EASTERN UPPER MICHIGAN

CITY           SKY/WX    TMP DP  RH WIND       PRES   REMARKS
KINROSS        CLEAR     75  64  69 CALM      30.03S
MACKINAC ISLAN CLEAR     72  61  67 W7        30.02S
$$
MIZ004>006-011>014-085-280400-
CENTRAL UPPER MICHIGAN

CITY           SKY/WX    TMP DP  RH WIND       PRES   REMARKS
ESCANABA       CLEAR     70  63  78 CALM      30.01R
MENOMINEE      CLEAR     72  63  73 CALM      30.00S
SAWYER-GWINN   CLEAR     75  62  62 S5        30.04R
$$
MIZ001>003-009>011-084-280400-
WESTERN UPPER MICHIGAN

CITY           SKY/WX    TMP DP  RH WIND       PRES   REMARKS
IRON MOUNTAIN  CLEAR     69  62  78 CALM      30.02R
HOUGHTON       CLEAR     69  64  84 E7        30.00R
COPPER HARBOR    N/A     70  63  78 VRB3      29.98R
IRONWOOD       CLEAR     72  61  68 S5        29.97S
$$

ABBREVIATIONS USED IN REMARKS
   TC - TEMPERATURE IN CELSIUS
  WCI - WIND CHILL INDEX
   HX - HEAT INDEX
  VSB - VISIBILITY



USA.gov is the U.S. government's official web portal to all federal, state and local government web resources and services.